SCP
0 0 0 0 0 0 0 0 0 0 0 0 0 0 0 0 0 0 -0 -0 0 0 0 0 0 0 0 0 0 0 0 0 0 0 0 0 0 0 1 1 1 0 0 0
0 0 0 0 0 0 0 0 0 0 0 0 0 0 0 0 0 0 0 0 0 0 0 0 0 0 0 0 0 0 0 0 0 0 0 0 0 0 0 0 0 0 0 0
0 0 0 0 0 0 0 0 0 0 0 0 0 0 0 0 0 0 0 0 0 0 0 0 0 0 0 0 0 0 0 0 0 0 0 0 0 0 0 0 0 0 0 0
0 0 0 0 0 0 0 0 0 0 0 0 0 0 0 0 0 0 0 0 0 0 0 0 0 0 0 0 0 0 0 0 0 0 0 0 0 0 0 0 0 0 0 0
0 0 0 0 0 0 0 0 0 0 0 0 0 0 0 0 0 0 0 0 0 0 0 0 0 0 0 0 0 0 0 0 0 0 0 0 0 0 0 0 0 0 0 0
0 0 0 0 0 0 0 0 0 0 0 0 0 0 0 0 0 0 0 0 0 0 0 0 0 0 0 0 0 0 0 0 0 0 0 0 0 0 0 0 0 0 0 0
0 0 0 0 0 0 0 0 0 0 0 0 0 0 0 0 0 0 0 0 0 0 0 0 0 0 0 0 0 0 0 0 0 0 0 0 0 0 0 0 0 0 0 0
0 0 0 0 0 0 0 0 0 0 0 0 0 0 0 0 0 0 0 0 0 0 0 0 0 0 0 0 0 0 0 0 0 0 0 0 0 0 0 0 0 0 0 0
0 0 0 0 0 0 0 0 0 0 0 0 0 0 0 0 0 0 0 0 0 0 0 0 0 0 0 0 0 0 0 0 0 0 0 0 0 0 0 0 0 0 0 0
0 0 0 0 0 0 0 0 0 0 0 0 0 0 0 0 0 0 0 0 0 0 0 0 0 0 0 0 0 0 0 0 0 0 0 0 0 0 0 0 0 0 0 0
0 0 0 0 0 0 0 0 0 0 0 0 0 0 0 0 0 0 0 0 0 0 0 0 0 0 0 0 0 0 0 0 0 0 0 0 0 0 0 0 0 0 0 0
0 0 0 0 0 0 0 0 0 0 0 0 0 0 0 0 0 0 0 0 0 0 0 0 0 0 0 0 0 0 0 0 0 0 0 0 0 0 0 0 0 0 0 0
0 0 0 0 0 0 0 0 0 0 0 0 0 0 0 0 0 0 0 0 0 0 0 0 0 0 0 0 0 0 0 0 0 0 0 0 0 0 0 0 0 0 0 0
0 0 0 0 0 0 0 0 0 0 0 0 0 0 0 0 0 0 0 0 0 0 0 0 0 0 0 0 0 0 0 0 0 0 0 0 0 0 0 0 0 0 0 0
0 0 0 0 0 0 0 0 0 0 0 0 0 0 0 0 0 0 0 0 0 0 0 0 0 0 0 0 0 0 0 0 0 0 0 0 0 0 0 0 0 0 0 0
0 0 0 0 0 0 0 0 0 0 0 0 0 0 0 0 0 0 0 0 0 0 0 0 0 0 0 0 0 0 0 0 0 0 0 0 0 0 0 0 0 0 0 0
0 0 0 0 0 0 0 0 0 0 0 0 0 0 0 0 0 0 0 0 0 0 0 0 0 0 0 0 0 0 0 0 0 0 0 0 0 0 0 0 0 0 0 0
0 0 0 0 0 0 0 0 0 0 0 0 0 0 0 0 0 0 0 0 0 0 0 0 0 0 0 0 0 0 0 0 0 0 0 0 0 0 0 0 0 0 0 0
0 0 0 0 0 0 0 0 0 0 0 0 0 0 0 0 0 0 0 0 0 0 0 0 0 0 0 0 0 0 0 0 0 0 0 0 0 0 0 0 0 0 0 0
0 0 0 0 0 0 0 0 0 0 0 0 0 0 0 0 0 0 0 0 0 0 0 0 0 0 0 0 0 0 0 0 0 0 0 0 0 0 0 0 0 0 0 0
0 0 0 0 0 0 0 0 0 0 0 0 0 0 0 0 0 0 0 0 0 0 0 0 0 0 0 0 0 0 0 0 0 0 0 0 0 0 0 0 0 0 0 0
0 0 0 0 0 0 0 0 0 0 0 0 0 0 0 0 0 0 0 0 0 0 0 0 0 0 0 0 0 0 0 0 0 0 0 0 0 0 0 0 0 0 0 0
0 0 0 0 0 0 0 0 0 0 0 0 0 0 0 0 0 0 0 0 0 0 0 0 0 0 0 0 0 0 0 0 0 0 0 0 0 0 0 0 0 0 0 0
0 0 0 0 0 0 0 0 0 0 0 0 0 0 0 0 0 0 0 0 0 0 0 0 0 0 0 0 0 0 0 0 0 0 0 0 0 0 0 0 0 0 0 0
0 0 0 0 0 0 0 0 0 0 0 0 0 0 0 0 0 0 0 0 0 0 0 0 0 0 0 0 0 0 0 0 0 0 0 0 0 0 0 0 0 0 0 0
0 0 0 0 0 0 0 0 0 0 0 0 0 0 0 0 0 0 0 0 0 0 0 0 0 0 0 0 0 0 0 0 0 0 0 0 0 0 0 0 0 0 0 0
0 0 0 0 0 0 0 0 0 0 0 0 0 0 0 0 0 0 0 0 0 0 0 0 0 0 0 0 0 0 0 0 0 0 0 0 0 0 0 0 0 0 0 0
Wind_Speed
11 9 9 12 16 21 22 21 18 21 25 26 20 16 13 12 12 12 13 13 13 12 12 11 10 10 9 10 9 9 10 12 13 12 12 13 13 13 13 13 13 12 12 12
7 10 10 12 16 19 23 23 24 24 26 22 19 16 16 14 12 13 14 14 13 13 12 12 11 10 9 10 9 8 10 11 11 10 10 11 11 10 10 11 11 10 11 11
8 8 7 15 20 22 20 20 21 25 25 19 18 17 16 15 13 14 14 13 13 13 13 12 12 10 11 10 7 7 9 9 8 9 9 10 9 9 10 11 10 10 11 11
5 6 14 10 7 14 19 19 18 18 18 18 18 17 14 12 11 12 12 14 14 13 14 13 12 11 9 7 6 7 7 8 7 8 9 8 8 10 10 8 9 9 10 10
6 9 10 8 6 8 12 14 11 14 16 17 15 13 13 8 9 11 13 13 13 13 14 14 12 10 7 6 6 6 8 8 7 8 8 8 9 10 9 8 8 8 6 8
7 9 12 9 5 6 7 11 6 8 11 12 10 11 11 9 11 12 12 12 12 13 13 13 11 7 6 7 7 9 9 8 6 6 7 9 9 8 6 6 7 6 5 5
11 10 10 6 4 7 10 7 3 4 6 8 9 11 13 13 12 12 12 12 13 12 11 11 9 5 7 8 10 8 5 4 5 6 6 7 6 5 5 5 5 5 5 4
10 11 13 4 7 8 5 0 2 3 5 7 10 12 13 13 13 12 12 12 11 11 11 9 7 5 7 9 8 5 4 4 5 4 4 4 5 5 5 6 6 6 5 4
10 9 2 4 5 2 0 2 3 4 5 7 10 10 12 13 12 11 11 11 10 10 11 9 7 5 8 8 5 4 3 4 3 3 3 4 5 6 6 6 6 6 6 6
5 6 4 3 3 1 2 3 3 4 6 7 9 11 12 11 11 11 10 10 9 9 9 9 8 7 7 7 4 3 4 4 3 3 3 3 4 4 5 6 6 6 6 6
6 4 3 4 3 2 2 3 4 5 6 7 9 9 9 10 11 10 10 9 8 8 8 9 9 8 7 6 4 4 3 3 3 3 3 3 3 3 4 3 4 6 5 5
7 4 5 4 1 1 3 5 6 7 8 7 7 9 9 9 9 9 9 9 8 8 8 9 8 8 7 6 4 3 3 2 2 3 3 3 3 2 3 3 4 5 5 5
4 2 4 4 3 2 4 6 6 6 7 8 7 7 8 8 8 8 8 9 8 9 9 9 8 8 7 6 4 3 3 2 2 2 2 3 3 4 3 3 5 5 5 6
2 3 5 4 4 4 5 5 5 5 5 6 6 6 6 7 7 7 8 8 8 8 8 8 8 8 8 7 5 3 2 2 2 2 2 2 3 3 3 4 3 2 3 5
3 4 6 5 4 3 3 4 4 5 5 6 5 5 6 7 7 8 8 7 6 6 7 7 8 9 9 7 5 3 2 1 1 1 1 2 2 3 3 3 3 3 2 3
4 4 4 4 5 4 4 4 5 6 6 6 6 6 6 6 7 7 6 6 6 6 7 7 8 8 8 7 6 4 2 2 1 0 1 1 2 3 3 3 3 3 3 2
3 4 4 5 5 5 5 5 6 6 6 6 6 6 6 6 6 6 6 6 5 5 6 7 8 8 8 7 5 3 3 2 2 1 1 1 2 2 2 3 3 3 2 2
4 5 5 5 5 6 5 4 4 5 5 5 5 5 4 4 5 6 6 6 5 5 6 7 8 8 7 7 5 3 3 2 2 2 2 2 2 2 2 3 3 3 2 3
3 4 4 4 4 4 4 5 5 5 5 4 4 4 4 4 4 5 5 5 5 6 7 8 10 8 7 8 6 3 3 3 2 2 2 3 3 3 3 3 3 3 3 3
3 3 3 3 3 3 4 4 4 4 4 3 3 3 3 3 3 4 3 3 3 4 6 7 7 6 6 6 6 3 3 3 2 2 3 3 3 3 2 2 2 3 3 2
3 3 3 3 3 3 3 4 3 4 3 2 2 3 3 4 3 3 3 3 4 5 6 6 5 5 5 5 5 4 3 3 3 2 2 2 2 2 2 2 2 2 2 2
2 2 3 3 3 3 2 2 2 3 3 2 2 2 3 3 3 3 2 2 4 6 5 4 4 5 6 5 4 4 4 3 3 3 2 2 2 2 2 2 2 2 2 2
2 2 3 2 3 3 2 2 2 2 2 2 2 2 3 3 3 3 3 3 4 6 5 4 5 6 6 4 3 3 3 3 3 3 2 2 2 2 2 2 1 1 1 1
2 2 2 2 1 1 2 3 2 2 2 2 2 2 3 3 2 2 3 4 5 5 4 5 6 6 5 3 3 3 3 3 2 2 2 2 2 2 1 1 1 1 1 0
2 2 1 1 1 2 3 2 2 2 2 2 2 2 2 2 2 3 3 4 5 5 4 5 6 6 4 3 3 3 2 2 2 2 2 1 1 1 1 1 1 1 1 1
2 2 2 2 2 2 2 2 2 2 2 2 2 2 2 2 2 3 3 3 4 4 3 3 3 3 3 3 2 2 2 2 2 2 1 1 1 1 1 1 1 1 1 2
2 2 2 2 2 2 2 2 2 2 2 2 3 2 2 2 2 2 3 3 3 3 2 2 2 2 2 2 2 2 2 2 2 2 1 1 1 1 1 2 2 2 2 2
Wind_Direction
235 234 215 216 218 217 221 228 236 245 250 259 267 272 279 284 287 286 287 288 287 286 284 282 276 270 265 262 255 241 235 233 231 228 227 225 224 223 222 220 219 218 216 217
224 226 227 237 232 227 227 232 238 249 256 261 270 275 278 281 283 285 286 288 289 287 284 280 277 273 267 262 255 238 234 235 234 228 223 221 220 218 215 216 216 215 214 213
219 218 223 237 229 227 230 231 233 242 251 262 267 269 273 278 278 281 287 292 292 290 288 285 282 276 270 266 260 239 235 236 230 223 222 220 215 213 214 214 211 212 214 213
183 177 224 234 229 228 234 239 239 247 259 265 269 274 276 280 286 292 297 299 299 297 293 289 285 279 272 265 251 242 240 239 231 219 220 216 210 214 216 210 208 211 212 212
192 221 250 259 226 210 222 238 240 248 263 274 284 283 270 279 294 293 297 300 299 298 294 290 286 282 273 261 250 243 242 238 231 220 214 210 212 214 212 206 207 208 204 205
198 216 231 237 202 198 205 238 239 246 260 274 286 269 271 311 312 305 304 301 300 299 296 291 290 288 271 261 251 245 243 238 228 217 211 213 214 212 206 200 204 193 194 201
212 229 247 247 208 173 204 232 194 227 254 269 265 266 292 311 306 303 303 303 305 304 299 296 298 286 265 262 255 256 249 234 224 216 213 212 206 197 186 184 183 185 187 191
203 221 236 195 173 199 231 242 207 251 268 278 281 288 296 300 302 307 308 310 312 307 303 306 310 292 270 265 272 276 249 234 227 215 209 197 185 183 177 174 177 183 181 187
203 218 210 161 176 181 224 242 263 280 289 286 283 287 298 301 302 304 307 310 312 308 306 311 316 299 275 279 287 274 254 246 235 208 196 187 183 183 178 177 185 188 186 191
221 225 212 188 169 194 253 262 280 283 284 282 283 291 298 301 305 308 312 313 313 313 310 313 319 312 295 298 293 261 244 244 225 202 193 182 183 185 185 187 191 191 190 191
230 232 215 211 220 264 304 316 309 301 292 288 291 295 299 301 305 309 312 315 315 311 308 308 314 315 316 311 296 269 252 240 223 206 190 184 183 180 185 195 193 186 188 181
223 210 225 235 194 324 305 307 309 307 303 302 297 297 302 299 304 311 314 318 316 314 312 312 316 317 321 317 304 276 264 247 225 209 191 184 172 145 110 137 139 156 155 157
256 265 261 268 284 316 298 304 305 299 296 300 306 306 305 304 308 313 314 317 318 317 316 317 320 323 328 324 311 280 259 251 230 205 190 185 173 169 160 119 114 121 138 148
273 270 254 251 267 299 296 296 299 298 301 305 308 312 310 309 312 314 313 315 319 321 322 323 324 327 331 328 318 303 276 250 228 203 187 181 173 166 166 163 155 128 108 127
253 269 262 276 277 291 305 300 293 294 306 312 316 316 317 315 313 313 316 319 322 327 330 332 332 331 338 334 330 330 323 290 256 197 164 156 148 144 143 145 143 133 114 105
272 264 259 259 267 283 296 294 288 293 304 309 314 317 316 310 307 309 318 328 330 331 334 335 332 332 337 337 336 339 348 1 360 66 117 131 137 142 144 145 144 143 139 125
250 253 255 257 267 278 278 277 280 288 299 303 307 313 314 313 313 317 326 331 327 326 336 339 332 333 337 340 342 341 348 1 21 51 71 99 117 131 139 139 136 127 109 92
255 262 262 262 268 277 285 290 291 293 292 297 304 307 310 310 310 317 325 327 329 336 350 346 337 341 347 349 347 346 355 5 19 43 58 68 77 83 97 106 112 109 93 82
265 266 271 272 276 276 280 285 289 292 297 298 298 299 301 305 308 314 323 331 338 341 345 344 346 351 350 350 352 353 5 21 31 40 55 73 80 80 87 95 99 97 95 88
281 278 281 285 288 274 279 289 294 294 296 294 294 298 305 312 316 315 319 335 341 330 328 334 340 344 347 349 355 357 8 25 36 40 47 58 69 73 76 83 89 90 88 86
289 290 287 285 284 280 282 288 286 288 299 304 295 294 300 310 319 317 321 328 339 338 335 339 343 344 347 350 357 7 14 23 32 36 43 53 64 70 70 71 73 77 80 82
280 280 285 289 287 290 295 295 288 292 304 308 306 307 313 319 329 326 318 316 328 336 337 340 345 352 354 355 7 18 24 27 29 33 38 44 58 68 67 65 64 63 66 72
270 272 280 288 286 292 314 317 307 297 298 303 308 312 310 313 319 314 315 332 330 334 337 338 345 355 359 4 12 21 30 34 34 34 33 35 43 55 65 65 59 59 64 67
265 269 274 289 303 302 304 312 310 299 293 295 302 302 299 305 312 309 307 321 328 329 332 339 350 1 7 8 10 16 22 25 29 32 33 35 36 38 43 48 46 33 36 31
256 263 263 257 260 270 280 296 304 307 303 298 306 309 297 289 287 308 316 319 326 330 331 340 351 359 2 4 6 8 9 10 13 18 22 23 25 26 25 22 3 322 305 289
246 253 256 252 258 273 278 275 273 286 292 296 304 304 306 303 295 297 302 310 315 319 322 330 339 347 352 353 352 351 353 354 356 0 1 355 348 336 323 315 297 285 277 273
252 254 257 261 258 258 261 259 259 269 273 275 283 295 303 303 299 299 300 301 306 309 312 317 323 327 332 335 333 333 332 330 330 327 323 318 310 302 297 290 285 280 275 267